TimeEDT,TemperatureF,Dew PointF,Humidity,Sea Level PressureIn,VisibilityMPH,Wind Direction,Wind SpeedMPH,Gust SpeedMPH,PrecipitationIn,Events,Conditions,WindDirDegrees,DateUTC
12:53 AM,44.1,42.1,93,30.35,10.0,Calm,Calm,-,N/A,,Clear,0,2013-09-18 04:53:00
1:53 AM,43.0,41.0,93,30.35,10.0,Calm,Calm,-,N/A,,Clear,0,2013-09-18 05:53:00
2:53 AM,42.1,41.0,96,30.34,10.0,Calm,Calm,-,N/A,,Clear,0,2013-09-18 06:53:00
3:27 AM,42.8,39.2,87,30.34,10.0,Calm,Calm,-,N/A,,Scattered Clouds,0,2013-09-18 07:27:00
3:39 AM,42.8,39.2,87,30.34,10.0,Calm,Calm,-,N/A,,Mostly Cloudy,0,2013-09-18 07:39:00
3:53 AM,41.0,39.0,93,30.33,10.0,Calm,Calm,-,N/A,,Mostly Cloudy,0,2013-09-18 07:53:00
4:29 AM,41.0,39.2,93,30.33,10.0,Calm,Calm,-,N/A,,Overcast,0,2013-09-18 08:29:00
4:45 AM,42.8,41.0,93,30.33,10.0,Calm,Calm,-,N/A,,Overcast,0,2013-09-18 08:45:00
4:53 AM,42.1,41.0,96,30.33,10.0,Calm,Calm,-,N/A,,Overcast,0,2013-09-18 08:53:00
5:53 AM,43.0,42.1,97,30.33,2.5,Calm,Calm,-,N/A,,Overcast,0,2013-09-18 09:53:00
6:07 AM,42.8,41.0,93,30.34,10.0,Calm,Calm,-,N/A,,Overcast,0,2013-09-18 10:07:00
6:23 AM,41.0,39.2,93,30.34,10.0,Calm,Calm,-,N/A,,Scattered Clouds,0,2013-09-18 10:23:00
6:43 AM,42.8,39.2,87,30.35,10.0,Calm,Calm,-,N/A,,Mostly Cloudy,0,2013-09-18 10:43:00
6:53 AM,42.1,39.9,92,30.34,10.0,Calm,Calm,-,N/A,,Overcast,0,2013-09-18 10:53:00
7:46 AM,42.8,42.8,100,30.35,10.0,Calm,Calm,-,N/A,,Scattered Clouds,0,2013-09-18 11:46:00
7:53 AM,44.1,42.1,93,30.34,10.0,Calm,Calm,-,N/A,,Partly Cloudy,0,2013-09-18 11:53:00
8:53 AM,50.0,46.0,86,30.33,10.0,Calm,Calm,-,N/A,,Clear,0,2013-09-18 12:53:00
9:53 AM,55.9,46.9,72,30.31,10.0,Calm,Calm,-,N/A,,Clear,0,2013-09-18 13:53:00
10:53 AM,61.0,46.9,60,30.30,10.0,Calm,Calm,-,N/A,,Clear,0,2013-09-18 14:53:00
11:53 AM,64.0,43.0,46,30.28,10.0,WNW,3.5,-,N/A,,Clear,290,2013-09-18 15:53:00
12:53 PM,66.0,44.1,45,30.25,10.0,Calm,Calm,-,N/A,,Clear,0,2013-09-18 16:53:00
1:53 PM,69.1,45.0,42,30.23,10.0,West,4.6,-,N/A,,Clear,280,2013-09-18 17:53:00
2:53 PM,70.0,44.1,39,30.21,10.0,Variable,4.6,-,N/A,,Clear,0,2013-09-18 18:53:00
3:53 PM,70.0,42.1,36,30.19,10.0,SSW,4.6,-,N/A,,Clear,200,2013-09-18 19:53:00
4:53 PM,71.1,39.0,31,30.18,10.0,Variable,5.8,-,N/A,,Clear,0,2013-09-18 20:53:00
5:53 PM,70.0,44.1,39,30.17,10.0,Calm,Calm,-,N/A,,Clear,0,2013-09-18 21:53:00
6:53 PM,60.1,50.0,69,30.16,10.0,Calm,Calm,-,N/A,,Clear,0,2013-09-18 22:53:00
7:53 PM,55.9,51.1,84,30.16,10.0,Calm,Calm,-,N/A,,Clear,0,2013-09-18 23:53:00
8:53 PM,53.1,50.0,89,30.17,10.0,Calm,Calm,-,N/A,,Clear,0,2013-09-19 00:53:00
9:53 PM,51.1,48.9,92,30.17,10.0,Calm,Calm,-,N/A,,Clear,0,2013-09-19 01:53:00
10:53 PM,50.0,48.0,93,30.18,10.0,Calm,Calm,-,N/A,,Clear,0,2013-09-19 02:53:00
11:53 PM,48.9,46.9,93,30.18,10.0,Calm,Calm,-,N/A,,Clear,0,2013-09-19 03:53:00